Overview Statistics Trail Chart Weather Telemetry Raw packets
 

This is the latest recevied weather packets stored in our database for station/object SP5MRF. If no packets are shown the sender has not sent any weather packets the latest 10 day(s).

<< 23 24 25 26 27 28 29 >>
Time Temp. Humidity Pressure Rain* Wind** Luminosity Snow
1788376369 14.44° C 72% 1015.1 hPa 0 mm - - -
1788375889 15° C 71% 1014.9 hPa 0 mm - - -
1788375409 15° C 71% 1015 hPa 0 mm - - -
1788374929 15° C 70% 1014.8 hPa 0 mm - - -
1788374449 15.56° C 70% 1014.8 hPa 0 mm - - -
1788373969 15.56° C 69% 1014.6 hPa 0 mm - - -
1788373009 16.11° C 68% 1014.6 hPa 0 mm - - -
1788372529 16.11° C 67% 1014.7 hPa 0 mm - - -
1788371569 16.67° C 67% 1014.4 hPa 0 mm - - -
1788371089 17.22° C 66% 1014.3 hPa 0 mm - - -
1788370609 17.22° C 66% 1014.2 hPa 0 mm - - -
1788370131 17.78° C 65% 1014.3 hPa 0 mm - - -
1788369653 17.78° C 65% 1014.1 hPa 0 mm - - -
1788369169 18.33° C 64% 1014 hPa 0 mm - - -
1788368689 18.89° C 64% 1014.2 hPa 0 mm - - -
1788368209 18.89° C 63% 1014 hPa 0 mm - - -
1788367729 18.89° C 63% 1014 hPa 0 mm - - -
1788367249 19.44° C 62% 1013.9 hPa 0 mm - - -
1788366769 19.44° C 62% 1014 hPa 0 mm - - -
1788366289 20° C 60% 1014.1 hPa 0 mm - - -
1788365809 20° C 60% 1013.9 hPa 0 mm - - -
1788364851 21.11° C 58% 1013.9 hPa 0 mm - - -
1788364369 21.67° C 57% 1013.9 hPa 0 mm - - -
1788363890 21.67° C 57% 1013.9 hPa 0 mm - - -
1788363410 21.11° C 58% 1013.9 hPa 0 mm - - -

* Rain latest hour (hover to see other rain measurements)
** Current wind speed in m/s (hover to see current wind gust speed)